Theta_e
308 309 311 310 311 297 302 303 298 300 306 303 298 304 302 304 297 292 303 300 300 303 305 307 309 310 311 313 321 329 329 330 331 331 332 333 335 336 337 338 338 339 339 340 341 343 345 346 346 347 348 348 348 349 349 349 350 352 352 352 352 354 354
309 311 311 311 311 310 303 299 301 307 309 306 299 292 296 292 289 293 298 296 295 297 293 306 305 307 309 311 312 326 328 330 330 331 332 334 335 335 336 337 338 339 341 341 341 342 345 346 346 347 348 349 350 351 350 349 350 351 352 353 353 354 354
308 311 310 308 311 313 305 303 309 301 294 294 297 299 290 289 289 291 295 298 297 298 298 303 304 304 306 308 311 311 326 328 329 330 332 333 334 335 335 336 337 339 341 342 342 342 344 346 347 348 350 350 351 352 352 351 350 352 353 354 354 355 356
308 308 306 299 303 309 311 310 306 308 302 297 294 296 298 296 291 292 292 295 292 302 301 304 304 306 306 307 308 310 326 327 328 329 331 332 332 334 335 337 338 339 341 342 343 343 344 345 347 348 351 351 352 352 353 352 352 353 353 354 355 354 355
307 300 303 302 303 302 303 303 300 303 302 304 301 302 297 294 293 292 292 291 298 305 308 307 306 307 308 309 310 310 326 327 328 329 330 331 332 333 335 337 338 339 341 342 342 343 344 346 348 349 351 352 352 353 353 354 352 352 353 354 355 356 356
301 302 307 307 307 306 304 303 300 301 299 296 294 292 301 299 295 288 294 293 302 307 314 311 308 309 310 310 311 311 325 328 328 329 330 331 331 333 334 336 338 339 340 342 342 343 343 345 348 349 351 352 353 353 354 355 354 353 353 354 355 356 356
301 305 308 311 310 309 308 306 303 304 302 300 294 287 293 298 298 301 299 295 298 312 312 315 311 311 311 311 312 315 323 328 329 329 330 330 332 333 334 336 337 338 339 341 342 342 343 346 349 350 351 352 353 354 354 355 355 354 355 355 356 356 357
306 308 310 310 311 310 306 307 307 305 301 302 299 297 300 295 297 295 294 295 297 308 314 316 313 312 313 312 312 315 326 327 328 328 329 329 330 332 334 336 337 338 339 340 340 342 343 346 349 351 352 353 353 354 355 356 355 356 356 356 356 356 356
297 301 304 306 309 308 305 304 306 306 305 305 304 304 305 297 297 297 293 289 296 309 320 312 312 313 312 312 313 316 324 326 327 327 327 327 330 332 332 333 335 337 338 337 338 340 342 343 347 351 352 352 353 353 355 356 357 357 357 357 356 356 356
289 290 292 294 298 302 305 306 306 306 305 304 302 297 299 290 299 300 294 295 302 310 313 313 314 314 311 312 313 314 318 327 327 326 326 326 328 330 331 331 332 334 336 338 339 340 342 344 346 349 352 353 353 354 354 358 359 359 359 359 358 356 356
293 297 301 306 307 304 301 303 305 305 306 305 303 300 298 292 300 299 299 301 302 307 309 313 314 314 311 311 311 317 321 326 328 327 327 327 329 330 330 331 333 335 337 339 341 342 344 346 348 351 353 353 354 354 354 357 360 361 361 360 359 357 356
302 303 304 306 307 303 304 303 303 305 304 304 302 299 297 303 301 292 304 309 303 305 308 313 314 310 313 314 318 326 328 332 330 328 328 336 330 331 331 332 333 334 337 341 343 345 349 350 352 354 354 355 354 354 354 357 360 362 362 361 360 359 357
301 303 304 306 306 306 305 304 304 304 304 303 301 302 305 305 298 294 307 306 306 305 309 312 317 317 312 313 321 324 326 328 331 328 328 328 328 330 331 332 334 335 337 340 343 345 350 352 352 354 355 355 355 355 356 357 359 361 362 362 361 360 358
300 302 304 306 305 305 306 306 305 305 304 303 303 303 305 305 304 308 314 311 307 308 309 311 317 318 314 315 321 323 322 325 328 327 327 327 327 330 332 333 334 336 338 339 340 342 346 351 352 354 355 355 355 355 355 356 357 360 362 361 360 360 359
297 302 305 305 305 305 304 306 307 306 305 304 304 304 304 309 305 306 310 311 308 313 311 315 316 315 317 321 322 321 321 323 328 328 327 327 327 331 333 334 334 335 337 338 339 340 344 349 352 354 356 356 356 356 356 356 356 358 360 360 360 360 359
294 301 303 304 304 305 304 303 305 307 304 301 303 302 304 303 304 304 307 305 307 310 313 317 319 317 318 318 317 318 318 320 321 323 330 332 335 335 334 334 336 339 339 340 342 344 346 349 352 353 355 357 356 356 357 357 357 358 358 359 359 359 360
291 297 302 303 303 301 298 300 304 308 309 306 305 306 307 306 309 303 301 304 310 313 314 311 311 314 317 316 317 314 315 321 320 320 329 335 337 339 340 344 346 351 353 349 349 351 352 352 352 354 355 356 356 357 357 358 358 357 357 358 358 358 359
290 295 297 300 297 290 294 306 309 311 307 306 305 303 305 306 306 305 307 312 314 316 311 310 310 312 316 317 319 319 319 319 318 319 324 330 335 339 341 345 346 348 351 354 356 356 356 356 356 355 356 356 357 358 358 358 357 357 356 356 357 357 358
289 293 296 295 289 292 307 308 311 311 310 309 307 305 307 307 307 309 309 314 312 317 316 313 316 315 317 317 316 316 319 319 319 319 323 327 332 336 339 337 337 339 342 350 352 353 355 356 356 356 356 356 357 357 357 356 357 356 356 355 356 357 357
293 293 296 288 291 302 306 308 309 312 312 310 309 307 315 314 308 309 309 313 315 316 315 318 320 316 319 319 320 321 322 321 318 316 317 319 324 331 343 346 337 337 340 345 349 350 351 352 352 352 353 356 357 356 356 356 355 355 355 354 357 356 356
288 291 291 293 302 301 305 304 307 308 309 309 305 299 311 320 322 319 308 314 315 315 315 318 318 318 319 315 315 319 319 319 320 319 322 318 323 342 345 347 348 351 346 346 350 355 350 350 349 349 351 353 354 355 354 354 354 354 354 353 357 357 356
292 288 289 293 294 293 298 306 310 311 313 312 310 310 311 320 323 324 322 317 313 313 314 315 314 316 313 310 311 316 318 319 318 321 319 319 326 350 354 353 351 349 350 353 356 349 344 345 348 350 351 351 350 351 352 352 353 354 353 353 357 359 357
289 289 289 291 292 297 303 307 310 312 313 313 312 310 305 315 322 323 322 321 322 323 321 313 315 311 306 307 319 330 340 343 345 343 346 349 352 354 355 357 359 358 357 355 357 358 352 348 351 355 358 350 350 349 351 351 351 351 352 353 355 361 360
290 290 288 288 298 298 306 309 312 313 315 315 309 298 301 313 322 322 321 319 320 321 324 325 322 315 315 320 330 343 345 345 345 344 342 342 343 346 352 357 357 356 358 348 346 350 354 353 358 357 355 355 350 349 350 350 349 349 350 352 354 362 362
290 290 288 292 295 304 309 311 313 314 316 311 301 295 311 316 321 323 322 319 320 321 321 323 320 323 325 327 336 345 346 344 343 344 345 347 346 345 346 351 363 355 354 354 354 358 362 362 361 359 357 352 353 351 350 349 348 349 350 353 356 363 363
287 289 288 290 296 307 309 312 311 314 313 301 300 316 318 317 322 323 322 320 320 321 321 323 324 326 330 333 334 337 342 344 343 343 344 346 351 351 355 360 360 352 355 353 354 357 360 357 359 362 358 355 352 355 351 349 350 350 353 355 357 362 363
291 292 289 287 285 302 311 311 310 311 306 305 313 315 319 321 320 320 321 322 322 322 321 326 327 327 328 328 331 334 339 344 344 344 345 347 348 347 347 347 354 355 354 354 355 356 358 360 360 359 357 355 355 358 354 351 353 356 356 357 358 362 363
287 287 286 288 302 304 308 308 303 310 311 318 320 317 316 319 319 319 320 322 325 325 324 324 325 326 325 326 330 333 337 343 344 345 347 348 348 348 350 351 353 356 352 351 351 354 356 360 359 357 355 354 357 358 360 359 357 361 359 359 359 362 362
292 293 296 302 302 306 307 308 309 311 312 317 319 319 316 315 316 319 318 318 323 326 326 326 326 325 326 327 330 331 334 340 343 343 345 347 347 347 346 347 353 353 351 351 352 354 356 356 358 358 356 354 357 355 359 363 358 363 361 360 358 360 361
301 301 301 305 307 305 306 309 311 310 314 315 316 316 314 315 317 317 316 317 320 324 327 326 325 325 327 329 331 332 334 337 342 343 344 346 347 347 346 347 350 350 349 349 349 350 351 353 356 359 361 357 356 357 361 364 364 365 362 360 358 358 361
294 289 303 305 305 304 305 307 311 312 313 313 313 313 313 315 317 317 317 317 320 323 326 326 326 326 328 328 330 332 333 336 340 340 341 342 345 344 343 347 350 348 346 348 348 350 350 351 354 357 359 359 358 359 359 363 366 365 363 360 360 359 360
293 294 299 302 305 305 307 307 307 307 309 310 311 312 313 315 317 317 316 317 318 323 324 325 325 327 328 328 329 331 332 335 338 339 340 340 342 344 346 348 351 348 348 346 347 347 347 349 353 356 357 357 359 360 361 363 364 364 362 362 361 361 361
296 299 300 303 307 308 308 307 307 308 309 309 310 311 312 314 314 314 314 317 318 320 323 325 325 326 328 329 330 330 332 333 338 339 340 340 341 343 345 346 349 346 346 346 345 345 346 348 350 352 355 358 359 360 362 363 361 360 360 361 362 360 360
291 292 296 304 297 298 304 305 306 308 309 310 309 310 310 311 311 312 313 316 318 318 321 323 325 324 326 328 330 330 331 333 339 339 339 341 341 343 346 347 346 345 347 345 344 343 344 345 347 347 353 355 355 358 360 363 362 358 358 359 359 358 359
291 299 302 308 303 304 306 305 308 308 309 308 307 308 309 310 311 315 316 315 315 316 318 322 326 325 326 327 330 330 332 334 338 339 339 339 340 342 344 343 343 343 343 346 345 344 344 347 347 347 348 351 350 350 353 357 361 357 358 352 350 351 355
299 301 301 303 303 302 305 307 307 308 310 309 308 309 310 310 312 315 315 315 314 314 317 321 325 326 327 328 330 330 334 337 339 338 339 341 342 343 343 343 342 343 342 341 342 344 346 347 347 347 347 349 350 350 352 352 353 352 351 349 347 347 348
298 302 303 304 304 304 306 308 308 309 311 312 309 309 309 310 311 313 312 315 317 316 317 320 323 325 326 328 330 331 334 336 339 341 343 343 342 342 343 344 342 342 341 342 343 344 346 346 345 345 345 346 348 349 350 351 350 348 347 347 346 345 345
Wind_Speed
16 14 14 13 11 9 9 9 15 9 6 6 2 1 2 1 0 5 2 4 7 5 8 4 13 11 12 13 12 23 28 27 25 24 22 21 19 19 17 18 17 18 17 17 17 17 16 16 17 18 18 18 19 17 18 19 18 17 18 18 18 16 15
22 14 14 14 13 6 7 13 9 4 2 5 5 3 2 5 6 5 9 10 4 9 8 8 7 10 15 18 13 20 20 21 21 19 18 19 19 19 20 18 18 19 20 20 18 17 19 20 21 19 18 16 16 16 18 19 18 19 18 17 17 15 15
17 18 12 16 14 17 9 10 10 11 8 11 6 3 5 5 6 4 8 14 9 12 8 10 17 14 11 14 18 15 23 20 19 18 19 19 19 17 16 16 14 15 15 17 17 18 20 21 20 18 15 15 14 15 17 19 20 20 19 16 15 14 14
14 15 12 13 15 15 14 6 13 9 3 7 5 6 1 2 2 6 4 8 7 10 9 15 18 19 15 12 15 15 27 25 23 20 19 19 18 16 17 16 16 17 17 19 20 20 19 19 17 17 17 16 18 18 18 18 17 16 16 16 15 15 15
15 14 11 15 15 15 14 10 6 10 6 4 4 3 8 3 2 2 3 4 3 6 8 17 18 18 15 14 10 14 23 24 23 23 21 19 18 17 18 17 17 18 18 19 20 20 19 18 17 17 17 19 19 17 18 18 19 19 19 19 17 16 15
10 13 14 13 14 15 12 11 8 10 12 8 13 7 5 9 3 2 1 4 4 5 2 6 17 16 16 14 9 12 22 26 24 21 21 21 18 18 19 18 18 18 17 18 18 16 15 16 17 19 18 17 18 19 19 18 18 18 19 18 17 17 16
9 10 15 15 12 15 14 11 11 7 11 6 7 7 7 5 6 5 4 3 5 5 4 7 15 15 13 13 10 9 17 26 24 21 21 20 19 19 18 18 18 17 17 16 17 18 18 19 20 21 19 19 19 20 19 18 19 20 20 20 18 16 15
11 13 12 16 17 15 15 14 12 10 10 14 5 6 4 6 4 8 4 4 5 7 7 1 14 13 13 11 14 8 20 18 21 21 21 19 17 17 18 17 17 16 15 14 13 15 17 16 16 19 19 18 17 17 18 18 20 21 20 18 17 17 16
4 7 4 15 15 12 10 12 13 12 7 12 9 4 2 5 8 9 3 6 3 6 7 7 6 9 11 10 10 9 18 16 20 21 20 18 19 19 18 17 15 14 14 16 15 16 16 16 17 18 18 17 17 18 17 18 19 20 19 18 18 18 18
6 8 5 7 15 16 10 9 13 16 15 10 12 9 3 5 5 9 5 4 4 3 5 5 6 7 10 10 9 7 13 16 19 18 19 19 19 19 20 17 14 16 17 16 15 17 16 16 16 16 17 18 18 18 19 17 17 17 18 17 18 18 18
7 4 6 9 9 12 13 13 14 16 17 14 6 6 4 8 4 8 5 5 3 1 0 1 1 6 7 7 8 4 5 22 20 17 18 17 15 19 21 18 17 16 14 18 19 18 17 16 16 15 17 17 17 17 18 17 16 16 17 17 18 18 18
11 13 12 16 15 9 15 15 15 14 21 19 10 10 10 5 5 6 4 8 7 5 2 1 0 7 5 5 8 9 9 10 19 16 17 17 16 18 18 19 20 18 18 17 17 16 17 17 16 16 17 17 17 17 18 17 17 17 16 17 18 18 18
15 14 14 13 13 11 8 19 15 16 18 22 20 8 7 10 6 6 5 10 7 4 3 1 1 4 4 8 7 11 7 5 12 21 21 19 17 16 17 19 20 20 17 16 17 16 17 17 16 16 16 16 15 15 16 17 17 18 17 17 18 18 18
15 12 10 9 10 10 10 5 15 16 15 21 22 12 5 14 6 5 8 8 10 7 3 3 1 0 2 4 6 7 8 8 7 14 20 21 18 16 15 17 18 17 18 17 16 15 14 16 16 16 16 16 17 17 16 17 17 16 16 17 18 18 18
12 9 8 9 9 8 9 10 10 20 13 15 21 17 12 5 8 10 8 6 6 2 6 3 4 4 5 9 8 9 8 9 12 10 12 17 17 13 13 14 16 16 16 15 14 15 15 16 17 16 16 16 16 17 17 17 18 17 16 17 18 18 18
9 11 12 10 10 11 9 9 9 4 13 12 18 17 12 5 6 13 3 7 4 5 5 4 3 4 7 5 6 7 6 8 9 8 10 11 8 9 13 13 11 12 13 13 15 16 16 16 16 15 13 14 15 17 16 17 16 16 15 16 18 17 17
9 14 15 9 12 10 8 6 5 2 0 4 7 16 14 10 7 11 7 4 5 4 6 9 6 10 9 6 5 9 9 6 5 9 10 11 10 12 10 9 10 11 12 13 14 14 15 16 16 16 14 14 15 15 15 14 13 15 15 15 16 17 16
10 17 17 12 5 3 1 3 4 1 2 5 7 14 14 13 3 3 7 4 4 5 6 10 7 7 7 6 5 8 9 11 11 11 6 7 13 13 11 12 12 9 8 9 9 12 12 12 13 13 12 13 14 14 14 12 14 15 15 14 14 16 16
7 13 13 5 5 5 3 7 6 4 3 4 10 9 20 10 6 3 8 4 8 7 4 7 8 7 6 8 9 7 7 9 7 7 7 10 5 4 9 10 8 7 9 8 7 7 7 8 8 8 8 8 8 10 11 13 13 13 14 13 12 14 16
7 3 2 3 2 7 10 8 8 9 6 1 3 17 23 11 7 4 5 11 7 7 8 6 6 6 8 10 7 7 8 6 4 7 4 6 6 7 4 3 4 10 9 9 8 7 6 6 6 6 7 7 9 10 10 12 12 12 12 13 12 14 15
3 7 7 6 6 9 4 4 4 4 1 2 5 9 11 16 17 14 3 10 8 6 5 7 6 8 10 8 7 6 8 7 5 5 2 4 8 11 7 8 6 2 5 7 8 5 5 6 6 7 8 7 7 8 9 10 10 12 11 13 12 13 15
5 7 7 5 1 2 5 9 11 13 4 9 7 9 11 15 21 20 23 9 5 6 15 12 11 13 13 8 5 6 6 6 4 2 3 5 6 9 10 8 6 7 7 6 5 5 5 4 5 6 8 8 8 7 9 8 9 10 11 12 10 12 14
7 6 3 3 1 1 6 14 15 20 5 8 7 13 10 11 15 18 16 18 19 17 7 11 11 10 9 8 8 10 13 14 14 16 18 16 13 10 8 8 10 7 6 5 4 4 1 1 2 3 4 8 10 9 8 10 9 9 10 10 10 11 12
5 5 3 4 2 4 9 14 17 13 12 7 7 10 8 9 14 15 17 19 18 16 13 15 16 11 10 6 4 7 13 13 14 13 12 13 12 11 9 8 7 5 5 5 3 2 1 4 4 0 3 4 7 10 10 10 11 11 10 9 7 7 10
6 6 5 4 4 5 11 12 18 19 14 6 11 5 1 9 9 13 13 16 15 13 13 12 12 7 6 5 5 9 9 13 13 11 8 9 10 9 8 7 5 3 3 3 2 2 0 2 4 3 0 2 4 6 7 9 12 13 9 7 8 8 9
5 4 7 5 3 5 13 6 16 19 8 7 3 2 6 9 5 12 12 13 13 11 12 9 9 10 11 11 11 6 8 10 9 8 7 7 9 9 6 7 5 4 2 4 6 6 4 5 5 4 2 1 2 4 6 10 13 8 7 8 9 9 10
5 4 5 4 3 7 12 12 10 17 7 3 4 4 6 11 13 11 10 11 11 11 10 11 11 12 13 13 12 13 9 12 10 9 8 10 9 8 8 7 6 4 4 5 6 5 5 6 6 5 4 4 3 4 7 11 6 7 9 9 9 9 10
4 4 3 2 1 7 15 14 7 7 6 5 1 6 10 12 13 14 12 11 11 12 11 12 12 12 12 12 13 12 10 10 8 8 9 8 8 9 9 8 7 6 5 5 5 5 4 5 4 4 4 5 4 4 7 5 7 7 9 9 10 10 10
5 2 1 3 7 8 10 10 6 4 8 6 10 9 10 10 11 11 10 13 14 12 12 12 12 12 12 10 11 11 10 7 9 10 10 10 9 9 8 7 5 4 5 5 4 4 5 7 7 6 4 3 5 4 3 5 8 8 8 9 10 9 10
7 10 9 2 3 10 10 10 9 11 14 14 13 12 9 10 9 9 10 12 13 14 13 11 11 12 12 12 12 12 11 12 8 8 8 7 7 7 6 6 7 5 5 2 2 4 6 7 7 7 5 0 2 1 2 1 5 7 9 9 9 9 9
4 5 3 3 6 11 10 8 5 7 11 11 11 10 10 10 11 11 12 12 12 13 12 14 11 11 11 11 11 10 9 9 7 7 7 6 5 5 5 5 5 5 5 5 6 6 7 7 7 6 5 4 3 2 4 3 4 6 7 8 8 8 8
5 6 12 8 8 5 4 3 7 11 11 13 12 9 9 9 10 11 11 11 12 13 12 12 10 10 10 9 10 9 9 8 6 6 4 5 5 5 5 6 6 6 6 6 6 6 6 6 7 6 6 5 5 4 4 4 4 6 7 7 8 7 8
9 13 12 7 2 2 1 13 11 7 9 9 10 10 9 10 11 11 10 10 10 11 12 12 10 9 10 9 9 11 9 10 7 7 7 6 6 6 8 6 5 4 4 5 6 6 6 7 7 7 6 6 7 6 5 3 4 6 7 6 7 7 7
6 5 6 7 4 1 5 11 9 8 7 8 9 8 9 9 10 10 10 8 8 9 10 11 9 9 9 11 10 12 12 12 7 8 8 7 6 5 5 4 4 4 4 4 4 4 4 4 5 6 5 5 6 6 5 2 3 4 5 6 6 6 7
5 4 6 2 3 2 5 7 5 6 6 6 6 7 7 7 6 6 8 10 9 9 9 9 9 9 10 12 11 11 11 13 8 5 5 6 5 5 4 3 3 3 3 2 3 3 3 4 4 4 3 4 5 6 5 4 2 4 5 6 6 5 5
13 13 13 10 5 2 2 3 4 3 3 3 3 3 4 5 6 6 8 7 8 9 8 8 8 9 9 10 10 9 9 11 7 6 4 5 4 4 2 2 1 0 1 1 2 1 2 4 4 6 7 6 6 6 5 5 7 7 7 7 7 6 6
9 8 10 9 7 9 6 1 2 3 4 3 3 4 6 7 7 6 6 4 4 6 7 8 7 6 8 8 8 7 6 8 7 5 4 3 3 2 1 0 1 0 0 0 2 3 3 3 3 4 5 4 5 7 6 7 8 9 8 9 8 7 8
Wind_Direction
237 200 194 216 190 208 177 186 208 209 122 193 255 320 162 217 128 248 211 241 250 276 305 243 196 196 205 228 160 165 168 172 174 177 178 178 178 177 177 179 182 182 179 179 179 178 177 177 179 180 181 179 177 176 179 182 182 181 187 190 191 190 188
223 227 192 213 207 211 145 206 199 136 162 194 211 200 175 181 198 220 198 235 207 189 236 233 250 208 201 212 186 172 179 171 172 177 174 174 177 179 180 180 180 179 180 182 182 181 179 181 185 186 181 178 176 175 179 181 181 185 188 191 194 192 189
202 218 204 206 224 220 208 189 132 186 159 213 186 218 221 181 212 226 209 213 227 187 211 189 223 224 221 210 208 184 169 169 174 174 174 178 179 175 173 176 180 181 177 179 181 184 185 186 185 182 177 176 175 177 179 181 186 187 187 189 193 194 194
180 202 199 207 201 218 226 161 176 185 200 188 171 200 265 158 233 198 255 198 229 194 204 188 201 213 217 214 201 194 165 170 175 176 176 179 176 174 176 178 182 184 180 178 181 182 184 183 180 181 177 178 180 181 179 184 185 184 185 189 191 196 197
172 202 192 208 192 188 206 215 188 172 216 134 194 161 207 164 196 206 206 245 232 237 199 191 194 203 206 201 186 182 164 171 174 175 177 178 174 173 180 181 182 184 182 183 184 182 182 178 179 181 181 183 182 180 183 181 182 185 188 191 191 196 195
214 196 196 198 189 190 203 208 205 181 179 175 185 232 183 217 232 212 238 244 258 261 302 196 191 192 197 191 169 173 159 169 176 173 172 173 173 178 179 179 182 183 183 185 186 182 178 178 179 184 186 182 181 185 184 183 184 186 189 190 194 195 196
254 223 188 190 187 182 202 205 213 194 181 179 171 195 213 177 230 265 246 281 271 244 249 229 183 185 183 176 171 146 159 169 173 172 171 172 173 176 179 181 179 181 181 180 180 178 181 181 181 184 182 184 186 186 183 184 185 189 190 192 194 194 197
271 274 222 178 181 178 195 212 217 213 198 190 178 169 184 170 176 222 245 251 254 284 304 199 158 168 169 163 174 142 160 171 169 170 171 171 176 177 180 182 182 181 179 175 173 179 182 180 178 182 185 185 185 185 185 185 189 189 189 191 192 194 197
298 321 231 173 174 183 202 201 209 220 217 183 191 173 147 174 198 189 163 232 278 287 323 21 74 127 133 138 165 137 159 166 167 168 170 171 176 180 179 181 179 176 177 178 181 183 186 186 182 182 183 183 184 187 186 188 191 189 189 189 191 194 196
214 208 217 183 179 192 188 206 201 211 225 200 171 205 165 190 229 189 189 243 264 282 340 13 37 92 137 151 164 154 156 163 171 168 170 174 175 177 179 175 167 174 180 181 183 187 189 190 188 184 184 186 185 184 189 187 187 189 191 190 192 195 197
269 292 277 282 293 188 196 192 206 195 219 224 187 141 159 188 221 191 210 176 225 208 172 45 12 89 150 152 158 121 135 166 169 172 174 177 179 180 174 170 176 176 173 178 184 187 188 188 189 188 187 187 186 184 185 186 185 185 187 190 193 195 197
255 268 273 296 304 274 193 191 204 200 196 221 215 167 198 164 140 217 239 161 159 233 223 88 89 103 94 105 101 97 98 126 164 171 178 177 177 177 173 175 177 178 178 178 180 180 181 184 185 186 188 187 186 183 185 186 183 184 186 189 192 195 196
315 298 299 307 296 290 231 193 207 210 192 203 221 191 167 163 157 194 216 157 155 207 178 178 140 135 161 123 129 122 121 132 150 168 177 176 177 174 174 175 177 178 174 175 178 179 183 183 183 181 184 185 185 185 185 185 186 187 183 186 190 193 194
304 303 298 301 308 304 319 293 215 221 205 196 212 215 200 169 167 196 178 159 162 167 189 151 206 192 165 105 131 107 93 93 111 151 169 173 172 168 170 171 172 172 173 176 177 176 179 183 186 183 182 183 185 185 185 186 189 186 183 187 189 191 194
315 306 302 292 293 297 303 295 256 222 224 198 195 215 221 186 166 191 188 150 158 182 149 171 198 182 84 107 124 116 115 113 116 127 153 165 166 157 158 166 170 172 173 173 176 179 182 186 188 188 184 184 184 185 185 186 189 188 185 187 189 190 192
323 348 322 303 292 295 306 300 302 224 218 211 182 206 213 200 182 184 163 157 157 200 148 95 105 96 104 101 106 97 101 107 99 104 126 128 118 139 156 164 164 172 176 175 177 181 185 188 190 189 184 181 183 188 187 189 188 188 188 187 190 192 190
320 321 324 306 311 327 318 291 272 111 113 314 201 189 210 213 152 173 180 224 211 193 157 120 98 95 97 94 80 86 73 71 100 118 124 129 134 133 136 139 150 157 169 175 177 180 183 189 189 188 179 178 185 187 188 188 184 191 193 189 189 190 188
305 311 316 320 316 293 263 301 338 46 17 317 307 189 198 208 148 182 170 187 156 100 115 132 129 107 111 125 125 117 107 80 65 55 92 140 152 151 152 154 155 153 145 152 162 170 176 181 185 183 178 180 185 185 184 181 186 192 195 191 188 189 188
304 308 319 354 260 237 295 322 305 320 326 357 301 173 177 203 215 152 159 166 172 145 148 132 120 124 103 90 78 57 75 96 99 87 86 93 70 99 141 139 133 144 147 151 154 149 157 161 161 162 175 177 170 179 181 185 189 190 195 194 185 188 189
287 304 320 237 233 310 310 298 316 323 287 74 338 61 30 13 310 229 187 176 171 135 122 112 125 108 99 83 72 63 33 70 122 122 133 113 121 127 122 112 156 162 153 152 157 165 161 147 160 160 168 171 171 183 182 186 190 191 192 195 187 185 189
325 336 321 276 281 300 278 310 326 335 70 37 95 74 35 12 8 353 258 161 156 145 119 93 69 85 77 52 18 35 43 24 43 82 104 152 139 139 153 139 128 129 146 145 156 154 152 170 168 176 174 168 172 175 184 186 184 192 191 196 189 186 187
353 321 326 327 298 252 323 330 317 290 290 90 73 86 32 19 7 17 27 16 32 102 111 95 90 83 69 52 20 14 25 8 354 18 17 32 95 114 105 82 79 108 115 106 107 115 139 138 160 177 177 174 170 173 187 188 184 191 195 198 187 183 188
327 319 307 280 297 284 21 323 345 340 320 93 110 72 54 356 6 11 29 31 28 15 15 111 99 80 82 68 25 9 41 38 42 60 59 56 60 56 62 84 85 64 60 84 83 71 76 277 242 125 158 182 176 184 186 192 195 196 203 198 186 184 185
271 280 283 306 340 358 310 347 345 330 318 81 63 75 15 332 8 10 28 36 29 16 15 58 59 67 75 64 95 47 52 59 51 47 57 64 59 50 49 48 60 70 63 54 44 57 169 245 284 180 133 160 192 189 192 189 196 205 204 196 182 171 176
237 241 267 271 282 307 331 2 356 342 318 59 65 100 247 330 352 23 24 35 25 20 17 29 64 47 72 62 73 76 63 60 50 43 43 69 76 73 57 35 24 44 52 93 126 117 75 314 279 275 113 145 194 206 196 192 203 205 192 173 173 170 170
249 270 269 249 280 350 331 353 21 353 359 51 65 358 296 278 15 35 25 26 26 21 21 26 48 47 37 31 22 35 84 71 66 63 42 55 76 71 65 54 52 62 68 47 39 40 25 4 353 342 358 331 215 199 198 209 210 186 167 172 169 166 168
261 248 266 337 1 330 349 354 21 10 53 96 232 266 316 18 29 23 20 23 26 21 17 25 41 40 34 27 25 20 41 73 63 48 47 59 63 58 50 38 31 52 46 36 37 27 10 4 347 332 343 334 296 220 204 221 199 168 171 168 168 165 165
251 202 212 127 264 308 2 40 47 299 52 158 23 29 23 17 23 14 7 10 26 24 24 20 24 35 28 24 22 25 35 61 55 49 44 56 60 53 45 40 26 34 43 27 10 360 353 339 305 309 329 302 300 264 235 211 182 175 165 167 164 164 166
245 268 273 18 335 7 8 24 25 6 27 64 61 39 35 18 24 11 14 4 4 19 26 21 19 24 21 24 19 23 19 43 65 58 51 47 50 56 44 26 14 14 37 41 10 359 16 12 352 323 274 266 278 251 254 182 172 166 161 158 161 165 166
318 293 243 211 58 29 11 24 11 3 38 30 35 33 25 26 19 20 13 0 5 7 18 16 20 18 11 10 10 13 20 22 40 58 56 50 51 51 40 21 13 21 8 5 9 16 18 1 349 343 338 175 147 285 327 120 152 150 150 151 157 161 161
326 263 325 97 72 32 356 3 347 36 35 32 29 23 16 13 17 15 15 3 6 6 16 13 9 14 9 4 2 2 8 21 33 46 52 46 54 49 28 16 12 9 19 14 36 30 19 352 345 338 354 13 19 12 40 45 93 126 134 141 146 148 151
273 278 302 328 347 7 349 4 7 30 23 25 25 18 4 12 16 15 7 2 7 2 10 8 3 1 359 3 1 358 359 6 20 24 38 48 36 28 34 25 22 24 25 40 41 35 15 345 346 343 351 359 357 2 17 43 81 107 119 128 134 139 141
312 307 308 324 337 267 334 49 35 29 27 16 18 11 7 18 13 5 5 6 7 2 356 350 354 1 353 356 356 353 350 351 4 24 14 17 27 25 37 28 18 32 40 42 42 33 11 356 349 343 351 11 10 7 354 31 74 101 112 119 122 130 137
285 282 306 360 22 5 40 48 24 22 22 23 11 359 13 10 10 355 352 4 15 357 348 340 345 356 343 346 356 355 351 343 5 20 13 6 10 31 28 21 13 30 55 60 48 28 357 356 348 348 353 7 5 360 356 12 74 88 112 117 121 129 138
262 285 290 349 352 315 87 33 23 20 28 5 3 359 356 357 349 358 5 358 355 350 337 332 345 346 345 341 352 355 352 339 336 5 6 8 9 23 13 28 22 59 73 70 67 37 347 343 332 336 18 20 16 6 7 8 81 102 84 85 77 76 90
284 291 299 307 310 286 335 33 357 345 358 348 12 342 331 342 348 15 8 358 344 331 327 328 341 339 339 341 343 351 346 334 342 358 360 9 9 356 38 65 114 89 69 82 98 68 355 345 356 24 22 20 12 3 6 54 74 76 82 86 86 86 93
268 276 280 292 323 324 320 27 27 340 324 10 33 16 351 346 343 354 342 335 333 319 323 326 320 327 336 333 335 334 339 323 327 349 350 346 354 352 50 26 10 80 63 85 49 32 32 63 49 39 42 31 33 24 31 53 71 79 82 89 90 87 89